User: anonymous   Login
Location: Albany
(35.0000°S, 118.0000°E)
Time: 13:49:07
(UTC-04:00)
Language:

Centaur D-1AR AC-48 - Orbit

View from above orbital plane
View from above orbital plane
View from above satellite
View from above satellite

Ground track
Ground track

The orbit data is extracted from the following two-line orbital elements,

1 10779U 78035B   16204.18285956 -.00000130 +00000-0 -10604-2 0  9993
2 10779 021.3230 183.7086 7159734 170.0709 353.7973 02.22651941311284
Epoch (UTC): 22 July 2016 04:23:19
Eccentricity: 0.7159734
inclination: 21.3230°
perigee height: 658 km
apogee height: 36132 km
right ascension of ascending node: 183.7086°
argument of perigee: 170.0709°
revolutions per day: 2.22651941
mean anomaly at epoch: 353.7973°
orbit number at epoch: 31128

The dashed part of the orbit path shows where the satellite is in the earth's shadow,  

DLR